[[{"header":{"parameterUnit":"m.s-1","parameterCategory":1,"la1":30.2992,"la2":30.254,"lo1":-89.0895,"lo2":-89.0443,"dy":0.0025,"dx":0.0025,"nx":19,"ny":19,"refTime":"2026-03-10T03:00:00:Z","depth":0,"parameterNumber":2,"parameterNumberName":"U-component_of_WINDS"},"data":[0,0,0,-0.1092,-0.1091,-0.1042,-0.1042,-0.0987,-0.0987,0,0,0,0,0,0,0,0,0,0,0,-0.1111,-0.1111,-0.1092,-0.1091,-0.1042,-0.1042,-0.0987,-0.0987,0,0,0,0,0,0,0,0,0,0,0,-0.1111,-0.1111,-0.1111,-0.109,-0.1042,-0.1042,-0.0987,-0.1021,0,0,0,0,0,0,0,0,0,0,-0.1067,-0.109,-0.1111,-0.1111,-0.109,-0.1042,-0.1042,-0.1023,-0.1019,-0.1013,0,-0.1009,0,-0.0997,-0.0984,-0.0984,0,0,0,-0.1087,-0.1093,-0.1076,-0.1111,-0.109,-0.1042,-0.1063,-0.1021,-0.1017,-0.1008,-0.1008,-0.1005,-0.0996,-0.0983,-0.0983,-0.0959,-0.0959,0,0,-0.109,-0.1105,-0.1078,-0.1073,-0.1081,-0.1064,-0.1061,-0.1018,-0.1019,-0.1007,-0.1004,-0.0995,-0.0983,-0.0983,-0.0959,-0.0959,0,0,0,-0.11,-0.1107,-0.109,-0.1076,-0.1066,-0.1063,-0.106,-0.1021,-0.1014,-0.1003,-0.0994,-0.0983,-0.0982,-0.0959,-0.0959,-0.0977,0,0,0,-0.1101,-0.1113,-0.1092,-0.11,-0.1067,-0.1043,-0.1063,-0.1017,-0.1011,-0.0995,-0.0983,-0.0982,-0.0959,-0.0959,-0.0977,-0.0983,0,0,0,-0.1112,-0.1114,-0.1109,-0.1101,-0.1081,-0.1043,-0.1034,-0.1015,-0.1006,-0.0983,-0.0982,-0.0959,-0.0959,-0.0976,-0.0982,-0.0982,0,0,0,-0.1129,-0.1126,-0.1109,-0.1102,-0.1082,-0.1055,-0.1034,-0.1013,-0.0996,-0.0983,-0.0959,-0.0959,-0.0976,-0.0982,-0.0981,-0.0984,-0.0986,0,0,-0.1133,-0.1127,-0.1121,-0.1105,-0.1086,-0.1061,-0.1044,-0.1013,-0.0997,-0.0973,-0.0972,-0.0977,-0.0982,-0.0981,-0.0996,-0.0998,0,0,0,-0.1128,-0.1124,-0.1115,-0.11,-0.1077,-0.1057,-0.1028,-0.1017,-0.0995,-0.0988,-0.0976,-0.0979,-0.0978,-0.0978,-0.098,-0.0978,-0.096,-0.096,-0.096,-0.1156,-0.1135,-0.1125,-0.1099,-0.1084,-0.1054,-0.104,-0.1019,-0.1003,-0.1001,-0.0993,-0.1004,-0.1005,-0.1007,-0.1005,-0.0993,-0.0993,-0.0993,-0.0993,-0.116,-0.1151,-0.113,-0.1112,-0.1091,-0.1075,-0.1046,-0.1035,-0.1018,-0.1008,-0.1006,-0.0997,-0.101,-0.1007,-0.0994,-0.0994,-0.0994,-0.0994,-0.0994,-0.1176,-0.1168,-0.1155,-0.113,-0.1113,-0.1087,-0.1071,-0.1052,-0.1034,-0.1032,-0.1022,-0.1022,-0.1019,-0.1029,-0.1029,-0.1029,-0.1029,-0.1029,-0.1029,-0.1198,-0.1182,-0.1171,-0.1146,-0.1134,-0.1115,-0.1085,-0.1072,-0.1053,-0.104,-0.104,-0.1024,-0.1015,-0.1013,-0.103,-0.103,-0.1029,-0.1029,-0.1029,-0.1209,-0.1204,-0.1187,-0.1175,-0.1144,-0.1129,-0.1105,-0.108,-0.1067,-0.106,-0.1044,-0.1041,-0.1032,-0.1031,-0.1029,-0.1049,-0.1049,-0.1049,-0.1049,-0.1223,-0.1217,-0.1195,-0.1177,-0.1156,-0.1133,-0.1115,-0.1092,-0.1067,-0.1057,-0.1052,-0.1048,-0.1047,-0.1039,-0.1037,-0.1035,-0.1056,-0.1056,-0.1056,-0.1229,-0.122,-0.1208,-0.1184,-0.1159,-0.1137,-0.112,-0.1099,-0.107,-0.1056,-0.1049,-0.1049,-0.1042,-0.1041,-0.1027,-0.1025,-0.1021,0,0]},{"header":{"parameterUnit":"m.s-1","parameterCategory":1,"la1":30.2992,"la2":30.254,"lo1":-89.0895,"lo2":-89.0443,"dy":0.0025,"dx":0.0025,"nx":19,"ny":19,"refTime":"2026-03-10T03:00:00:Z","depth":0,"parameterNumber":3,"parameterNumberName":"V-component_of_WINDS"},"data":[0,0,0,4.4794,4.4797,4.495,4.495,4.5141,4.5142,0,0,0,0,0,0,0,0,0,0,0,4.4746,4.4747,4.4793,4.4797,4.4949,4.495,4.514,4.5142,0,0,0,0,0,0,0,0,0,0,0,4.4746,4.4747,4.4749,4.4798,4.4949,4.495,4.514,4.5026,0,0,0,0,0,0,0,0,0,0,4.4879,4.4833,4.4747,4.4749,4.4799,4.4949,4.495,4.5021,4.5033,4.507,0,4.5102,0,4.5125,4.5155,4.5155,0,0,0,4.4798,4.4822,4.4866,4.4749,4.48,4.4949,4.4881,4.5028,4.5042,4.5086,4.5105,4.5112,4.5128,4.5156,4.5157,4.5366,4.5366,0,0,4.479,4.4772,4.4856,4.4875,4.4852,4.4876,4.4886,4.5036,4.5055,4.5105,4.5116,4.5132,4.5157,4.5159,4.5365,4.5366,0,0,0,4.4765,4.4766,4.4806,4.4867,4.4895,4.4881,4.4892,4.5048,4.5063,4.5119,4.5134,4.5158,4.5161,4.5364,4.5365,4.5395,0,0,0,4.476,4.4752,4.4802,4.4793,4.4892,4.4974,4.49,4.5053,4.507,4.5133,4.5158,4.5162,4.5363,4.5364,4.5392,4.5412,0,0,0,4.4737,4.4749,4.477,4.4791,4.4857,4.4972,4.4995,4.5057,4.5079,4.5156,4.5163,4.5362,4.5364,4.539,4.5408,4.5464,0,0,0,4.4707,4.4793,4.477,4.4872,4.4855,4.4989,4.4994,4.5094,4.5163,4.5159,4.5363,4.5365,4.5389,4.5405,4.5461,4.5509,4.5527,0,0,4.4805,4.4804,4.4866,4.485,4.4984,4.4967,4.5105,4.5184,4.5206,4.5311,4.5316,4.5393,4.5408,4.5464,4.5631,4.5645,0,0,0,4.4891,4.4935,4.4974,4.504,4.5103,4.5159,4.5219,4.5249,4.5339,4.5257,4.5428,4.5437,4.5471,4.5495,4.5507,4.5537,4.5375,4.5375,4.5374,4.5005,4.5031,4.5135,4.518,4.5243,4.5305,4.5359,4.5409,4.5414,4.5455,4.5487,4.5585,4.5613,4.5622,4.5653,4.5512,4.5513,4.5513,4.5513,4.5153,4.5221,4.5229,4.5333,4.5359,4.5446,4.5509,4.5511,4.5596,4.5563,4.5593,4.5557,4.5637,4.5666,4.5515,4.5515,4.5515,4.5514,4.5514,4.5233,4.527,4.5305,4.5404,4.5478,4.5519,4.5601,4.5622,4.5641,4.5671,4.5709,4.5708,4.5712,4.5687,4.5688,4.5688,4.5688,4.5689,4.5689,4.5302,4.5341,4.5409,4.5485,4.553,4.5593,4.5657,4.5702,4.5758,4.5766,4.5767,4.577,4.5639,4.5607,4.5694,4.5693,4.5693,4.5692,4.5692,4.5446,4.5417,4.5522,4.5568,4.566,4.5732,4.5757,4.5848,4.5889,4.5929,4.5926,4.5825,4.5825,4.5815,4.5789,4.5918,4.5918,4.5918,4.5918,4.5515,4.5517,4.563,4.5703,4.5776,4.581,4.5928,4.5979,4.6026,4.6053,4.6036,4.6003,4.5992,4.5998,4.5985,4.5961,4.6131,4.6131,4.6131,4.5606,4.5617,4.5714,4.5761,4.5835,4.5897,4.6009,4.6092,4.6139,4.614,4.6075,4.6066,4.6011,4.5992,4.5992,4.5971,4.5927,0,0]}]]